This demonstration page uses our WeatherBlox Daily Observations layout. Learn more.

Left ArrowRight Arrow

Hourly Observations for April 10, 2021

Temp ( °F °C ) Dew Point ( °F °C ) Humidity (%) Winds ( mph kmh ) Pressure ( in mb ) Visibility ( mi km ) Precip ( " mm )
12:15 am 00:15 Cloudy 61 16 57 14 88 88 SE 8 13 29.76 1008 10 16.0934 N/A
12:35 am 00:35 Cloudy 61 16 57 14 88 88 Calm 29.75 1007 10 16.0934 N/A
12:55 am 00:55 Mostly Cloudy 61 16 55 13 83 83 Calm 29.74 1007 10 16.0934 N/A
1:15 am 01:15 Mostly Cloudy 59 15 55 13 88 88 Calm 29.74 1007 10 16.0934 N/A
1:35 am 01:35 Cloudy 57 14 57 14 100 100 Calm 29.76 1008 10 16.0934 N/A
1:55 am 01:55 Cloudy 55 13 55 13 100 100 Calm 29.77 1008 10 16.0934 N/A
2:15 am 02:15 Cloudy 55 13 55 13 100 100 Calm 29.78 1008 10 16.0934 N/A
2:35 am 02:35 Partly Cloudy 55 13 55 13 100 100 Calm 29.78 1008 10 16.0934 N/A
2:55 am 02:55 Partly Cloudy 57 14 57 14 100 100 Calm 29.77 1008 10 16.0934 N/A
3:15 am 03:15 Partly Cloudy 57 14 57 14 100 100 Calm 29.76 1008 10 16.0934 N/A
3:35 am 03:35 Clear 55 13 55 13 100 100 Calm 29.75 1007 10 16.0934 N/A
3:55 am 03:55 Clear 57 14 55 13 94 94 Calm 29.74 1007 10 16.0934 N/A
4:15 am 04:15 Partly Cloudy 57 14 55 13 94 94 Calm 29.73 1007 10 16.0934 N/A
4:35 am 04:35 Partly Cloudy 55 13 55 13 100 100 Calm 29.74 1007 10 16.0934 N/A
4:55 am 04:55 Clear 55 13 55 13 100 100 Calm 29.74 1007 10 16.0934 N/A
5:15 am 05:15 Clear 55 13 55 13 100 100 Calm 29.73 1007 10 16.0934 N/A
5:35 am 05:35 Clear 55 13 55 13 100 100 Calm 29.72 1006 10 16.0934 N/A
5:55 am 05:55 Clear 57 14 55 13 94 94 Calm 29.72 1006 10 16.0934 N/A
6:15 am 06:15 Clear 55 13 55 13 100 100 Calm 29.69 1005 10 16.0934 N/A
6:35 am 06:35 Clear 54 12 54 12 100 100 Calm 29.7 1006 10 16.0934 N/A
6:55 am 06:55 Clear 55 13 55 13 100 100 Calm 29.68 1005 10 16.0934 N/A
7:15 am 07:15 Sunny 54 12 54 12 100 100 Calm 29.69 1006 10 16.0934 N/A
7:35 am 07:35 Sunny 57 14 55 13 94 94 Calm 29.68 1005 10 16.0934 N/A
7:55 am 07:55 Sunny 57 14 55 13 94 94 Calm 29.69 1005 10 16.0934 N/A
8:15 am 08:15 Sunny 57 14 55 13 94 94 Calm 29.69 1005 10 16.0934 N/A
8:35 am 08:35 Sunny 57 14 55 13 94 94 Calm 29.68 1005 10 16.0934 N/A
8:55 am 08:55 Sunny 59 15 55 13 88 88 Calm 29.67 1005 10 16.0934 N/A
9:15 am 09:15 Sunny 59 15 55 13 88 88 Calm 29.67 1005 10 16.0934 N/A
9:35 am 09:35 Sunny 61 16 55 13 83 83 Calm 29.66 1004 10 16.0934 N/A
9:55 am 09:55 Partly Cloudy 61 16 57 14 88 88 Calm 29.64 1004 10 16.0934 N/A
10:15 am 10:15 Sunny 63 17 57 14 83 83 Calm 29.63 1003 10 16.0934 N/A
10:35 am 10:35 Sunny 63 17 59 15 88 88 SSE 10 17 29.63 1003 10 16.0934 N/A
10:55 am 10:55 Sunny 64 18 61 16 88 88 SSE 12 19 29.61 1003 10 16.0934 N/A
11:15 am 11:15 Mostly Cloudy 64 18 61 16 88 88 SSE 13 20 29.61 1003 10 16.0934 N/A
11:35 am 11:35 Cloudy 64 18 61 16 88 88 SSE 14 22 29.6 1003 10 16.0934 N/A
11:55 am 11:55 Mostly Cloudy 66 19 61 16 83 83 SSE 15 24 29.6 1002 10 16.0934 N/A
12:15 pm 12:15 Mostly Cloudy 64 18 63 17 94 94 SE 14 22 29.6 1003 10 16.0934 N/A
12:35 pm 12:35 Cloudy 63 17 63 17 100 100 SE 14 22 29.6 1002 10 16.0934 N/A
12:55 pm 12:55 Cloudy 61 16 61 16 100 100 SE 17 28 29.59 1002 10 16.0934 N/A
1:15 pm 13:15 Cloudy 61 16 61 16 100 100 SE 16 26 29.59 1002 7 11.26538 N/A
1:35 pm 13:35 Cloudy 61 16 61 16 100 100 SE 8 13 29.57 1001 5 8.0467 N/A
1:55 pm 13:55 Cloudy 61 16 61 16 100 100 ESE 15 24 29.55 1001 5 8.0467 N/A
2:15 pm 14:15 Cloudy 59 15 59 15 100 100 ESE 15 24 29.53 1000 7 11.26538 N/A
2:35 pm 14:35 Cloudy 59 15 59 15 100 100 ESE 18 30 29.51 999 5 8.0467 N/A
2:55 pm 14:55 Cloudy 61 16 61 16 100 100 SE 20 31 29.5 999 7 11.26538 N/A
3:15 pm 15:15 Cloudy 61 16 61 16 100 100 ESE 16 26 29.48 998 7 11.26538 N/A
3:35 pm 15:35 Cloudy 59 15 59 15 100 100 ESE 20 31 29.46 998 5 8.0467 N/A
3:55 pm 15:55 Cloudy 61 16 61 16 100 100 SE 21 33 29.46 998 3 4.82802 N/A
4:15 pm 16:15 Cloudy 59 15 59 15 100 100 SSE 16 26 29.46 998 4 6.43736 N/A
4:35 pm 16:35 Cloudy 59 15 59 15 100 100 SSE 13 20 29.45 997 10 16.0934 N/A
4:55 pm 16:55 Cloudy 59 15 59 15 100 100 SSE 12 19 29.44 997 10 16.0934 N/A
5:15 pm 17:15 Cloudy 61 16 61 16 100 100 SSE 10 17 29.43 997 10 16.0934 N/A
5:35 pm 17:35 Cloudy 61 16 61 16 100 100 SE 13 20 29.43 997 10 16.0934 N/A
5:55 pm 17:55 Cloudy 61 16 61 16 100 100 SE 15 24 29.41 996 10 16.0934 N/A
6:15 pm 18:15 Cloudy 61 16 61 16 100 100 SE 13 20 29.41 996 10 16.0934 N/A
6:35 pm 18:35 Cloudy 61 16 61 16 100 100 SSE 13 20 29.41 996 10 16.0934 N/A
6:55 pm 18:55 Cloudy 61 16 61 16 100 100 SSE 13 20 29.41 996 10 16.0934 N/A
7:15 pm 19:15 Cloudy 61 16 61 16 100 100 SSW 20 31 29.44 997 10 16.0934 N/A
7:35 pm 19:35 Cloudy 55 13 55 13 100 100 SW 8 13 29.45 997 5 8.0467 N/A
7:55 pm 19:55 Cloudy 55 13 55 13 100 100 Calm 29.44 997 10 16.0934 N/A
8:15 pm 20:15 Cloudy 55 13 55 13 100 100 SW 5 7 29.46 998 10 16.0934 N/A
8:35 pm 20:35 Mostly Cloudy 54 12 54 12 100 100 Calm 29.46 998 10 16.0934 N/A
8:55 pm 20:55 Cloudy 54 12 54 12 100 100 Calm 29.46 998 10 16.0934 N/A
9:15 pm 21:15 Cloudy 54 12 54 12 100 100 Calm 29.46 998 10 16.0934 N/A
9:35 pm 21:35 Cloudy 54 12 54 12 100 100 Calm 29.46 998 10 16.0934 N/A
9:55 pm 21:55 Mostly Cloudy 54 12 54 12 100 100 Calm 29.46 998 10 16.0934 N/A
10:15 pm 22:15 Clear 52 11 52 11 100 100 Calm 29.46 998 10 16.0934 N/A
10:35 pm 22:35 Clear 52 11 52 11 100 100 Calm 29.46 998 10 16.0934 N/A
10:55 pm 22:55 Clear 52 11 52 11 100 100 Calm 29.46 998 10 16.0934 N/A
11:15 pm 23:15 Partly Cloudy 52 11 52 11 100 100 Calm 29.46 998 10 16.0934 N/A
11:35 pm 23:35 Mostly Cloudy 54 12 54 12 100 100 SSW 9 15 29.46 998 10 16.0934 N/A
11:55 pm 23:55 Cloudy 54 12 54 12 100 100 SW 15 24 29.46 998 10 16.0934 N/A

Powered by AerisWeather